When you browse on this site, cookies collect data to enhance your experience and personalize the content and advertising you see.
Visit our Privacy Policy to learn more. By continuing to use the site, you agree to this use of cookies and data.
  • en Suisse
  • Liste des pays
  • À 7 jours
  • Température de l'eau
  • Carte météo
  • Widgets météo
  • user-avatar
    Se connecter

    Météo par heure à Monterey

    Ce jour, 15 Décembre, Dimanche

    Heure Température Précipitation Vent Pression Humidité
    00:00 +8°C° 0.1 mm 6 m/s 758 mmHg 85%
    01:00 +8°C° 0.1 mm 6 m/s 758 mmHg 86%
    02:00 +8°C° 0 mm 6 m/s 758 mmHg 86%
    03:00 +7°C° 0 mm 6 m/s 758 mmHg 86%
    04:00 +7°C° 0 mm 6 m/s 758 mmHg 86%
    05:00 +7°C° 0 mm 6 m/s 759 mmHg 86%
    06:00 +7°C° 0 mm 5 m/s 759 mmHg 87%
    07:00 +6°C° 0 mm 5 m/s 759 mmHg 87%
    08:00 +8°C° 0 mm 5 m/s 760 mmHg 82%
    09:00 +9°C° 0 mm 5 m/s 760 mmHg 77%
    10:00 +10°C° 0 mm 6 m/s 761 mmHg 71%
    11:00 +12°C° 0 mm 5 m/s 761 mmHg 68%
    12:00 +12°C° 0 mm 5 m/s 761 mmHg 64%
    13:00 +13°C° 0 mm 5 m/s 760 mmHg 60%
    14:00 +13°C° 0 mm 5 m/s 760 mmHg 61%
    15:00 +12°C° 0 mm 5 m/s 760 mmHg 63%
    16:00 +12°C° 0 mm 5 m/s 760 mmHg 64%
    17:00 +10°C° 0 mm 5 m/s 760 mmHg 69%
    18:00 +8°C° 0 mm 4 m/s 760 mmHg 74%
    19:00 +7°C° 0 mm 4 m/s 761 mmHg 80%
    20:00 +7°C° 0 mm 4 m/s 761 mmHg 81%
    21:00 +7°C° 0 mm 3 m/s 761 mmHg 82%
    22:00 +7°C° 0 mm 3 m/s 761 mmHg 83%
    23:00 +7°C° 0 mm 3 m/s 761 mmHg 81%

    Demain, 16 Décembre, Lundi

    Heure Température Précipitation Vent Pression Humidité
    00:00 +7°C° 0 mm 3 m/s 761 mmHg 79%
    01:00 +6°C° 0 mm 2 m/s 762 mmHg 78%
    02:00 +5°C° 0 mm 3 m/s 761 mmHg 77%
    03:00 +5°C° 0 mm 3 m/s 761 mmHg 77%
    04:00 +5°C° 0 mm 3 m/s 761 mmHg 76%
    05:00 +5°C° 0 mm 3 m/s 762 mmHg 75%
    06:00 +5°C° 0 mm 3 m/s 762 mmHg 73%
    07:00 +5°C° 0 mm 3 m/s 762 mmHg 72%
    08:00 +8°C° 0 mm 3 m/s 762 mmHg 66%
    09:00 +10°C° 0 mm 3 m/s 762 mmHg 60%
    10:00 +11°C° 0 mm 3 m/s 763 mmHg 55%
    11:00 +12°C° 0 mm 3 m/s 762 mmHg 51%
    12:00 +14°C° 0 mm 3 m/s 762 mmHg 48%
    13:00 +16°C° 0 mm 3 m/s 761 mmHg 45%
    14:00 +14°C° 0 mm 3 m/s 761 mmHg 49%
    15:00 +13°C° 0 mm 3 m/s 761 mmHg 54%
    16:00 +12°C° 0 mm 3 m/s 761 mmHg 59%
    17:00 +11°C° 0 mm 3 m/s 761 mmHg 60%
    18:00 +10°C° 0 mm 3 m/s 761 mmHg 60%
    19:00 +9°C° 0 mm 2 m/s 761 mmHg 61%
    20:00 +9°C° 0 mm 3 m/s 761 mmHg 61%
    21:00 +8°C° 0 mm 3 m/s 761 mmHg 62%
    22:00 +8°C° 0 mm 3 m/s 761 mmHg 63%
    23:00 +8°C° 0 mm 3 m/s 761 mmHg 62%

    Après-demain, 17 Décembre, Mardi

    Heure Température Précipitation Vent Pression Humidité
    00:00 +8°C° 0 mm 3 m/s 760 mmHg 62%
    01:00 +8°C° 0 mm 3 m/s 760 mmHg 62%
    02:00 +8°C° 0 mm 3 m/s 760 mmHg 61%
    03:00 +8°C° 0 mm 3 m/s 760 mmHg 59%
    04:00 +9°C° 0 mm 3 m/s 759 mmHg 58%
    05:00 +9°C° 0 mm 3 m/s 759 mmHg 57%
    06:00 +9°C° 0 mm 3 m/s 759 mmHg 55%
    07:00 +9°C° 0 mm 3 m/s 758 mmHg 54%
    08:00 +10°C° 0 mm 3 m/s 758 mmHg 52%
    09:00 +11°C° 0 mm 3 m/s 758 mmHg 49%
    10:00 +13°C° 0 mm 3 m/s 758 mmHg 47%
    11:00 +14°C° 0 mm 3 m/s 758 mmHg 44%
    12:00 +16°C° 0 mm 3 m/s 757 mmHg 41%
    13:00 +17°C° 0 mm 3 m/s 757 mmHg 38%
    14:00 +16°C° 0 mm 3 m/s 756 mmHg 42%
    15:00 +14°C° 0 mm 3 m/s 755 mmHg 47%
    16:00 +14°C° 0 mm 2 m/s 755 mmHg 51%
    17:00 +12°C° 0 mm 3 m/s 754 mmHg 51%
    18:00 +10°C° 0 mm 3 m/s 754 mmHg 52%
    19:00 +8°C° 0 mm 4 m/s 753 mmHg 53%
    20:00 +8°C° 0.1 mm 5 m/s 753 mmHg 58%
    21:00 +8°C° 0.1 mm 6 m/s 753 mmHg 63%
    22:00 +8°C° 0.1 mm 7 m/s 753 mmHg 68%
    23:00 +9°C° 0.6 mm 7 m/s 753 mmHg 74%

    18 Décembre, Mercredi

    Heure Température Précipitation Vent Pression Humidité
    00:00 +9°C° 0.6 mm 8 m/s 753 mmHg 81%
    01:00 +8°C° 0.6 mm 9 m/s 752 mmHg 87%
    02:00 +8°C° 1.8 mm 9 m/s 752 mmHg 89%
    03:00 +8°C° 1.8 mm 9 m/s 752 mmHg 91%
    04:00 +8°C° 1.8 mm 9 m/s 752 mmHg 93%
    05:00 +10°C° 1.5 mm 9 m/s 752 mmHg 91%
    06:00 +10°C° 1.5 mm 8 m/s 753 mmHg 90%
    07:00 +10°C° 1.5 mm 8 m/s 753 mmHg 88%
    08:00 +11°C° 0.3 mm 8 m/s 754 mmHg 87%
    09:00 +11°C° 0.3 mm 8 m/s 755 mmHg 85%
    10:00 +11°C° 0.3 mm 8 m/s 755 mmHg 84%
    11:00 +11°C° 0.2 mm 7 m/s 756 mmHg 85%
    12:00 +11°C° 0.2 mm 6 m/s 756 mmHg 86%
    13:00 +10°C° 0.2 mm 5 m/s 756 mmHg 88%
    14:00 +10°C° 0 mm 5 m/s 756 mmHg 88%
    15:00 +11°C° 0 mm 4 m/s 756 mmHg 88%
    16:00 +10°C° 0 mm 4 m/s 757 mmHg 89%
    17:00 +10°C° 0 mm 3 m/s 757 mmHg 89%
    18:00 +10°C° 0 mm 2 m/s 758 mmHg 90%
    19:00 +10°C° 0 mm 2 m/s 758 mmHg 91%
    20:00 +10°C° 0 mm 1 m/s 758 mmHg 91%
    21:00 +10°C° 0 mm 1 m/s 759 mmHg 92%
    22:00 +9°C° 0 mm 1 m/s 759 mmHg 93%
    23:00 +9°C° 0 mm 1 m/s 759 mmHg 93%

    19 Décembre, Jeudi

    Heure Température Précipitation Vent Pression Humidité
    00:00 +9°C° 0 mm 1 m/s 759 mmHg 94%
    01:00 +8°C° 0 mm 1 m/s 759 mmHg 94%
    02:00 +8°C° 0 mm 1 m/s 759 mmHg 94%
    03:00 +8°C° 0 mm 1 m/s 759 mmHg 93%
    04:00 +8°C° 0 mm 1 m/s 760 mmHg 93%
    05:00 +8°C° 0 mm 1 m/s 760 mmHg 91%
    06:00 +8°C° 0 mm 1 m/s 760 mmHg 90%
    07:00 +8°C° 0 mm 1 m/s 760 mmHg 89%
    08:00 +10°C° 0 mm 1 m/s 761 mmHg 83%
    09:00 +11°C° 0 mm 1 m/s 761 mmHg 78%
    10:00 +13°C° 0 mm 1 m/s 761 mmHg 72%
    11:00 +14°C° 0 mm 1 m/s 761 mmHg 68%
    12:00 +14°C° 0 mm 0 m/s 761 mmHg 64%
    13:00 +14°C° 0 mm 0 m/s 760 mmHg 61%
    14:00 +15°C° 0 mm 1 m/s 760 mmHg 65%
    15:00 +14°C° 0 mm 1 m/s 760 mmHg 70%
    16:00 +13°C° 0 mm 1 m/s 760 mmHg 74%
    17:00 +13°C° 0 mm 1 m/s 760 mmHg 76%
    18:00 +12°C° 0 mm 1 m/s 760 mmHg 78%
    19:00 +11°C° 0 mm 1 m/s 760 mmHg 80%
    20:00 +10°C° 0 mm 1 m/s 761 mmHg 80%
    21:00 +10°C° 0 mm 1 m/s 761 mmHg 80%
    22:00 +10°C° 0 mm 1 m/s 761 mmHg 79%
    23:00 +10°C° 0 mm 1 m/s 761 mmHg 79%

    20 Décembre, Vendredi

    Heure Température Précipitation Vent Pression Humidité
    00:00 +9°C° 0 mm 2 m/s 761 mmHg 78%
    01:00 +9°C° 0 mm 2 m/s 761 mmHg 78%
    02:00 +9°C° 0 mm 2 m/s 760 mmHg 77%
    03:00 +9°C° 0 mm 2 m/s 760 mmHg 76%
    04:00 +9°C° 0 mm 2 m/s 760 mmHg 76%
    05:00 +9°C° 0 mm 2 m/s 760 mmHg 76%
    06:00 +9°C° 0 mm 2 m/s 760 mmHg 76%
    07:00 +9°C° 0 mm 2 m/s 760 mmHg 76%
    08:00 +10°C° 0 mm 2 m/s 760 mmHg 72%
    09:00 +13°C° 0 mm 1 m/s 761 mmHg 68%
    10:00 +14°C° 0 mm 1 m/s 761 mmHg 64%
    11:00 +15°C° 0 mm 1 m/s 760 mmHg 62%
    12:00 +16°C° 0 mm 1 m/s 760 mmHg 59%
    13:00 +18°C° 0 mm 1 m/s 759 mmHg 57%
    14:00 +16°C° 0 mm 1 m/s 759 mmHg 63%
    15:00 +15°C° 0 mm 1 m/s 758 mmHg 69%
    16:00 +14°C° 0 mm 1 m/s 758 mmHg 75%
    17:00 +13°C° 0 mm 1 m/s 758 mmHg 77%
    18:00 +12°C° 0 mm 1 m/s 758 mmHg 79%
    19:00 +10°C° 0 mm 2 m/s 758 mmHg 81%
    20:00 +10°C° 0 mm 2 m/s 758 mmHg 78%
    21:00 +10°C° 0 mm 2 m/s 758 mmHg 75%
    22:00 +9°C° 0 mm 2 m/s 758 mmHg 71%
    23:00 +9°C° 0 mm 2 m/s 757 mmHg 71%
    Voir plus